Flag for Norway

Past Weather in Brønnøysund, Norway — Yesterday and Last 2 Weeks

Now
54 °F

Scattered clouds.


Feels Like: 51 °F
Forecast: 53 / 50 °F
Wind: 8 mph from Southwest

Location: Bronnoysund / Bronnoy

Current Time: Jul 8, 2020 at 2:01:45 pm

Latest Report: Jul 8, 2020 at 1:20 pm


Visibility: N/A

Pressure: 29.68 "Hg

Humidity: 72%

Dew Point: 45 °F

Location of BrønnøysundLocation

Past Weather in Brønnøysund — Graph

°F

Brønnøysund Temperature Yesterday

Maximum temperature yesterday: 55 °F (at 3:20 pm)
Minimum temperature yesterday: 46 °F (at 4:50 am)
Average temperature yesterday: 51 °F

High & Low Weather Summary for the Past Weeks

 TemperatureHumidityPressure
High82 °F (Jun 27, 1:20 pm)100% (Jun 29, 9:20 pm)30.33 "Hg (Jun 29, 9:20 pm)
Low43 °F (Jul 1, 11:20 pm)37% (Jun 28, 2:50 pm)29.15 "Hg (Jul 6, 12:20 am)
Average58 °F71%29.71 "Hg
* Reported Jun 23 12:20 pm — Jul 8 12:50 pm, Brønnøysund. Weather by CustomWeather, © 2020

Note: Actual official high and low records may vary slightly from our data, if they occured in-between our weather recording intervals... More about our weather records

Brønnøysund Weather History for the Previous 24 Hours

Scroll right to see more
 ConditionsComfort  
Time TempWeatherWind HumidityBarometerVisibility
12:50 pm
Wed, Jul 8
55 °FScattered clouds.10 mph67%29.68 "HgN/A
12:20 pm57 °FScattered clouds.12 mph67%29.68 "HgN/A
11:50 am57 °FScattered clouds.12 mph67%29.68 "HgN/A
11:20 am55 °FScattered clouds.12 mph67%29.68 "HgN/A
10:50 am54 °FScattered clouds.10 mph72%29.68 "HgN/A
10:20 am55 °FScattered clouds.12 mph72%29.68 "HgN/A
9:50 am52 °FScattered showers. Broken clouds.9 mph82%29.68 "HgN/A
9:20 am52 °FSprinkles. Broken clouds.8 mph82%29.65 "HgN/A
8:50 am52 °FSprinkles. Broken clouds.9 mph82%29.65 "HgN/A
8:20 am54 °FScattered showers. Scattered clouds.7 mph77%29.65 "HgN/A
7:50 am52 °FScattered showers. Scattered clouds.6 mph77%29.65 "HgN/A
7:20 am50 °FScattered showers. Broken clouds.5 mph76%29.65 "HgN/A
6:50 am50 °FScattered showers. Partly sunny.5 mph82%29.65 "HgN/A
6:20 am50 °FScattered showers. Partly sunny.7 mph82%29.65 "HgN/A
5:50 am50 °FOvercast.5 mph88%29.65 "HgN/A
5:20 am50 °FOvercast.6 mph82%29.65 "HgN/A
4:50 am48 °FOvercast.5 mph87%29.65 "HgN/A
4:20 am48 °FOvercast.5 mph87%29.65 "HgN/A
3:50 am48 °FOvercast.5 mph94%29.65 "HgN/A
3:20 am48 °FMore clouds than sun.3 mph94%29.65 "HgN/A
2:50 am48 °FOvercast.5 mph94%29.65 "HgN/A
2:20 am48 °FMostly cloudy.3 mph94%29.65 "HgN/A
1:50 am48 °FMostly cloudy.5 mph94%29.68 "HgN/A
1:20 am48 °FOvercast.5 mph94%29.68 "HgN/A
12:50 am50 °FSprinkles. Passing clouds.5 mph88%29.68 "HgN/A
12:20 am48 °FMostly cloudy.5 mph94%29.65 "HgN/A
11:50 pm
Tue, Jul 7
48 °FBroken clouds.6 mph94%29.65 "HgN/A
11:20 pm50 °FMostly cloudy.2 mph88%29.65 "HgN/A
10:50 pm50 °FBroken clouds.3 mph88%29.65 "HgN/A
10:20 pm50 °FMostly cloudy.5 mph88%29.65 "HgN/A
9:50 pm52 °FPartly sunny.5 mph82%29.65 "HgN/A
9:20 pm52 °FPartly sunny.3 mph82%29.65 "HgN/A
8:50 pm52 °FBroken clouds.6 mph77%29.65 "HgN/A
8:20 pm52 °FBroken clouds.5 mph77%29.65 "HgN/A
7:50 pm54 °FPartly sunny.7 mph72%29.65 "HgN/A
7:20 pm52 °FPartly sunny.6 mph77%29.65 "HgN/A
6:50 pm54 °FScattered showers. Broken clouds.8 mph72%29.65 "HgN/A
6:20 pm54 °FScattered showers. Broken clouds.8 mph77%29.65 "HgN/A
5:50 pm54 °FScattered showers. Broken clouds.8 mph77%29.65 "HgN/A
5:20 pm54 °FPartly sunny.8 mph77%29.65 "HgN/A
4:50 pm54 °FBroken clouds.8 mph72%29.65 "HgN/A
4:20 pm55 °FBroken clouds.8 mph67%29.65 "HgN/A
3:50 pm55 °FPartly sunny.8 mph63%29.65 "HgN/A
3:20 pm55 °FPartly sunny.8 mph63%29.62 "HgN/A
2:50 pm54 °FPartly sunny.7 mph72%29.62 "HgN/A
2:20 pm52 °FBroken clouds.7 mph77%29.62 "HgN/A
Weather by CustomWeather, © 2020

See weather overview